Miscellaneous Local Product
Issued by NWS Hastings, NE

Home | Current Version | Previous Version | Text Only | Print | Product List | Glossary On
Versions: 1 2 3 4 5 6 7 8 9 10 11 12 13 14 15 16 17 18 19 20 21 22 23 24 25 26 27 28 29 30 31 32 33 34 35 36 37 38 39 40 41 42 43 44 45 46 47 48 49 50
000
AXUS43 KGID 240002
MISGRI

GID CWA HOURLY WEATHER ROUNDUP
NATIONAL WEATHER SERVICE HASTINGS NE
700 PM CDT FRI AUG 23 2019

NOTE: "FAIR" INDICATES FEW OR NO CLOUDS BELOW 12,000 FEET WITH NO
SIGNIFICANT WEATHER AND/OR OBSTRUCTIONS TO VISIBILITY.

...SOUTH CENTRAL NEBRASKA...

CITY           SKY/WX    TMP DP  RH WIND       PRES   REMARKS
GRAND ISLAND   LGT RAIN  69  65  86 SE6       30.06S
KEARNEY        MOSUNNY   74  68  81 E15       30.05R
HASTINGS       MOSUNNY   75  68  78 SE13      30.06S
ORD            FAIR      75  66  73 SE14      30.03F
YORK           MOSUNNY   73  68  83 SE8       30.07S
AURORA         SUNNY     71  69  94 E9        30.06F
LEXINGTON      FAIR      74  67  79 SE12      30.04R
HOLDREGE       PTSUNNY   75  69  80 E13       30.02F
HEBRON         PTSUNNY   76  69  78 E7        30.05S

...NEBRASKA PANHANDLE...

CITY           SKY/WX    TMP DP  RH WIND       PRES   REMARKS
CHADRON        PTSUNNY   77  61  57 S16G28    29.93S
ALLIANCE       MOSUNNY   72  62  71 S17       29.97F
SCOTTSBLUFF    PTSUNNY   75  64  68 SE15      29.98R
SIDNEY         CLOUDY    73  61  65 SE16G30   30.02R

...WESTERN AND NORTH CENTRAL NEBRASKA...

CITY           SKY/WX    TMP DP  RH WIND       PRES   REMARKS
VALENTINE      CLOUDY    81  65  58 SE22      30.00S
AINSWORTH      SUNNY     76  65  67 SE14      30.03S
ONEILL         FAIR      76  67  72 SE15G22   30.06S
BROKEN BOW     FAIR      73  68  84 SE12      30.04S
IMPERIAL       PTSUNNY   74  59  59 SE15      29.99S
NORTH PLATTE   MOSUNNY   76  64  66 S9        30.01S
MCCOOK         PTSUNNY   75  62  64 E16       30.01R

...EASTERN NEBRASKA...

CITY           SKY/WX    TMP DP  RH WIND       PRES   REMARKS
NORFOLK        MOSUNNY   77  63  61 SE10      30.07S
SO SIOUX CITY  SUNNY     77  62  59 SE12      30.09R
TEKAMAH        SUNNY     77  63  61 SE9       30.08S
COLUMBUS       PTSUNNY   77  66  68 E12       30.08R
ALBION         CLOUDY    75  69  81 SE9       30.07S
OMAHA EPPLEY   PTSUNNY   80  61  52 E9        30.08R
OFFUTT AFB     PTSUNNY   79  63  57 E6        30.11R
MILLARD        SUNNY    N/A N/A N/A SE6       30.08R
LINCOLN        SUNNY     77  64  64 E10       30.07R
NEBRASKA CITY  SUNNY     75  65  70 SE7       30.08S
BEATRICE       MOSUNNY   77  69  76 E8        30.06S
FALLS CITY     SUNNY     76  67  73 E7        30.05R

...NORTHERN KANSAS...

CITY           SKY/WX    TMP DP  RH WIND       PRES   REMARKS
GOODLAND       PTSUNNY   73  63  70 SE18G32   29.99F
HILL CITY      PTSUNNY   72  69  90 E12       30.00F
NORTON         CLOUDY    73  64  73 SE13G18   30.04S
PHILLIPSBURG   MOSUNNY   77  66  69 E17       30.00F
SMITH CENTER   SUNNY     73  72  94 E12       30.01F
HAYS           PTSUNNY   75  69  81 E7        29.83R
RUSSELL        MOSUNNY   73  68  84 E14       29.94S
CONCORDIA      SUNNY     71  68  90 E9        30.01F
SALINA         LGT RAIN  73  69  87 SE12      30.00F
TOPEKA         MOSUNNY   79  68  69 E6        30.02S


USA.gov is the U.S. government's official web portal to all federal, state and local government web resources and services.